Theta_e
287 286 286 286 285 285 284 284 284 284 284 283 281 280 279 278 278 277 276 276 275 275 274 274 274 275 275 276 277 278 278 278 281 284 286 287 289 291 293 294 293 294 294 294 295 295 295 296 296 299 301 303 304 304 309 316 318 319 322 320 320 320 320 320 319 317 316 317 320 320 319 318 316 316 315 315 315 315 315 313 309 309 307 305 311
286 286 286 285 285 284 284 283 283 283 283 283 281 280 279 278 277 276 276 275 274 274 274 274 274 274 275 275 276 276 276 277 279 281 283 286 288 289 291 293 293 294 294 295 295 295 295 296 297 298 300 302 304 304 307 314 317 318 320 320 320 320 320 320 320 318 317 316 318 320 319 319 317 316 316 314 314 314 314 311 310 312 309 305 310
286 285 285 285 284 283 283 283 283 283 283 282 281 280 279 278 277 275 275 274 274 273 273 274 274 274 274 274 274 274 274 275 277 278 281 284 287 289 290 292 293 294 294 295 295 295 295 296 297 298 300 301 303 304 307 313 316 317 319 319 319 319 319 320 319 318 318 317 318 320 320 319 319 317 315 313 313 314 313 309 311 314 310 305 307
286 285 285 284 284 283 282 282 282 282 282 282 281 279 278 277 276 274 274 273 273 272 272 273 273 273 273 273 273 273 273 274 275 277 279 282 286 288 289 291 292 293 294 295 296 296 296 297 298 298 299 300 302 303 307 313 316 317 318 319 319 319 319 319 319 319 318 317 317 319 319 318 318 317 314 312 313 313 310 307 310 313 309 304 306
285 285 284 284 283 283 282 282 282 282 282 281 280 279 278 277 275 274 273 272 272 272 271 272 272 272 272 272 273 272 272 273 276 278 279 280 284 288 289 290 291 292 294 295 296 296 297 298 299 299 299 300 301 303 306 312 316 316 318 318 318 319 319 318 319 319 319 318 317 318 318 317 317 315 312 312 313 311 307 306 308 311 308 304 306
285 284 284 284 283 283 282 281 281 281 281 281 280 278 277 276 274 273 272 271 271 271 271 271 271 271 271 271 272 271 272 274 277 278 278 280 284 287 289 289 291 292 293 295 295 296 297 298 299 300 300 300 301 303 306 311 315 316 317 318 318 318 318 318 318 318 319 319 318 318 317 316 316 314 312 312 313 309 306 306 308 311 310 307 306
284 284 284 284 283 283 282 281 281 281 282 281 280 277 276 276 275 274 272 271 271 271 270 270 270 270 270 270 271 271 271 274 277 278 279 281 283 287 288 289 290 292 293 294 296 296 297 298 299 300 301 300 301 302 305 311 315 316 317 317 317 317 318 317 317 318 318 318 318 317 317 315 314 313 312 313 313 310 307 306 310 312 312 310 309
284 284 284 284 283 282 281 281 281 282 282 281 279 278 278 277 276 276 274 272 272 272 271 270 270 270 270 270 271 271 271 274 276 277 278 280 282 285 288 288 290 292 293 294 296 296 297 298 299 300 301 301 301 302 305 310 314 316 316 317 317 317 317 317 317 317 317 316 316 316 316 314 313 313 313 314 314 312 308 306 309 311 312 312 313
284 284 284 283 282 281 281 281 282 283 283 282 281 280 280 279 277 276 276 274 273 273 273 272 271 272 272 272 272 272 272 274 276 277 278 279 281 284 286 288 289 291 292 294 295 295 296 297 298 299 300 301 301 301 304 309 313 315 316 316 317 317 317 316 316 316 315 315 314 314 314 313 312 313 313 314 314 314 311 308 309 311 312 313 314
284 284 283 283 281 280 280 281 282 283 283 283 282 281 280 280 279 277 276 275 274 274 273 273 273 273 275 275 273 272 272 273 275 276 277 278 279 282 285 287 288 289 290 292 294 294 295 296 296 298 300 301 302 302 303 308 312 314 315 316 317 317 316 316 315 315 315 314 314 313 313 312 312 313 313 312 313 314 313 312 311 312 313 313 314
283 283 283 282 281 280 281 282 282 283 283 283 283 282 281 280 279 277 276 275 274 273 273 274 274 275 276 276 275 273 273 273 274 274 276 277 278 280 283 285 287 288 289 291 292 293 294 295 295 297 299 301 302 302 303 307 311 314 315 316 316 317 317 316 315 315 315 315 315 314 314 313 313 313 313 312 312 313 314 314 313 313 313 313 314
283 283 282 281 280 280 281 282 283 284 283 283 283 282 281 280 278 276 275 275 274 274 274 274 275 276 277 277 276 275 275 276 275 275 276 277 278 280 282 284 285 286 288 289 291 292 293 294 294 295 298 300 301 302 304 307 311 314 315 316 316 316 317 317 316 316 316 315 315 315 315 314 313 312 313 313 312 312 314 314 314 313 313 314 314
283 282 281 280 279 280 281 282 284 284 284 283 283 282 281 280 278 275 274 274 273 273 274 275 276 277 277 277 277 276 277 278 277 277 277 278 279 280 281 283 284 286 287 288 289 291 292 293 294 295 297 299 301 303 305 307 310 314 315 315 316 316 317 317 317 317 316 315 315 315 315 315 314 313 313 313 313 312 314 314 314 313 314 314 313
282 281 281 280 279 280 281 282 283 284 283 283 282 282 281 279 277 275 273 272 272 272 274 275 276 277 277 277 277 277 278 279 279 277 278 279 280 280 281 282 284 285 286 287 288 289 290 292 293 294 296 299 301 303 306 308 310 313 315 315 315 316 316 316 317 316 316 315 315 315 315 315 315 314 314 313 313 313 313 314 314 313 313 313 313
281 281 280 279 279 279 281 282 283 284 283 283 282 281 280 278 276 274 272 272 272 272 273 274 276 277 277 277 276 276 278 279 279 278 278 279 280 281 281 282 283 284 285 286 287 288 290 291 293 293 295 298 301 303 305 306 308 313 315 315 315 315 315 315 316 316 316 315 315 315 315 315 315 315 315 315 314 313 313 314 314 314 313 313 313
281 280 279 278 279 279 281 282 283 284 283 282 281 279 278 276 275 272 271 271 271 271 273 274 275 277 278 276 275 276 278 280 280 279 279 279 280 281 282 283 283 284 285 286 287 288 289 291 292 293 294 297 300 302 304 305 307 311 315 315 315 315 315 315 315 315 315 315 315 315 315 315 315 315 315 316 315 314 314 313 313 314 313 313 312
280 279 278 278 278 279 281 282 282 283 282 281 280 278 276 274 273 271 269 270 270 270 272 274 275 276 277 277 276 276 279 280 281 281 281 280 280 281 282 283 284 285 286 286 287 287 288 290 292 293 293 296 299 302 303 304 306 310 314 315 315 315 315 315 315 315 315 315 315 315 315 315 315 314 315 316 315 314 314 313 313 313 313 312 312
278 278 278 277 278 279 280 281 282 282 281 280 278 277 274 272 271 269 268 268 269 269 271 273 275 276 276 277 277 278 279 281 281 281 282 282 281 282 283 284 285 286 286 287 287 287 288 289 291 292 293 295 298 301 302 303 305 310 313 314 314 315 315 314 314 313 314 315 315 315 315 315 315 314 314 315 314 314 314 314 314 313 313 312 312
277 277 277 277 278 279 280 281 281 281 280 279 277 275 272 270 269 268 267 267 268 269 270 272 274 276 276 277 279 279 280 281 282 282 282 282 282 282 283 284 285 286 287 288 288 288 289 289 290 292 293 295 297 300 302 302 304 309 313 313 314 314 314 314 314 313 313 313 313 313 314 314 314 314 314 314 314 314 315 314 314 314 313 312 312
277 276 276 276 278 279 279 280 280 279 278 278 275 273 271 270 268 267 267 267 268 269 270 272 273 275 276 277 279 280 281 282 283 283 282 282 282 283 284 285 286 286 287 288 289 290 290 290 290 291 293 294 297 299 302 302 303 308 312 313 313 314 314 314 314 313 312 312 312 312 313 313 314 314 314 313 314 314 314 314 314 315 314 313 312
276 276 276 276 278 279 279 280 280 278 276 275 273 272 271 269 267 266 267 267 268 269 271 272 273 274 275 276 278 281 282 283 284 284 284 284 284 284 284 285 286 286 287 288 289 290 290 290 291 292 293 295 297 299 302 302 303 307 311 313 313 314 314 313 313 313 313 312 312 311 311 312 312 313 313 313 314 314 314 313 314 314 314 313 313
275 275 275 276 277 278 279 279 279 277 274 272 272 272 271 268 266 266 267 267 268 269 270 272 272 274 275 276 278 281 282 282 284 285 286 286 286 286 286 287 288 288 288 289 289 290 290 290 291 292 294 295 297 299 302 303 303 306 310 312 313 313 313 313 313 313 312 312 311 311 311 311 311 311 312 312 313 314 314 313 314 314 313 313 313
275 275 275 276 277 278 278 279 277 275 272 271 271 272 270 267 266 266 266 266 267 268 270 271 272 273 274 275 277 278 280 281 282 284 286 287 288 288 289 289 289 290 290 290 290 290 290 290 291 293 294 295 297 300 302 303 304 306 309 311 312 313 313 313 312 312 311 310 310 310 310 311 312 311 311 311 312 313 313 313 313 313 313 313 312
275 275 275 276 277 277 278 278 276 273 271 270 270 270 269 266 265 265 265 265 266 268 269 270 271 271 273 274 275 276 278 281 283 284 285 287 288 289 290 291 291 291 291 292 292 292 292 291 292 293 294 295 297 300 301 303 304 306 308 310 311 312 312 312 311 311 309 307 309 310 311 312 312 312 312 312 312 312 312 312 312 312 312 313 313
274 275 275 276 277 277 277 277 275 272 270 269 269 268 266 265 264 264 264 265 266 267 268 269 269 270 271 272 273 275 278 280 283 285 285 286 287 288 289 290 292 292 292 292 292 293 293 292 293 293 294 296 297 299 301 303 305 306 307 309 310 311 311 311 311 310 309 308 309 310 312 313 313 313 313 312 312 311 311 311 312 312 312 312 312
274 274 275 275 276 277 277 276 275 272 270 269 269 267 265 264 263 263 264 264 265 266 267 268 269 270 270 271 272 273 275 278 281 284 285 285 287 289 289 289 291 293 294 294 294 294 293 293 293 293 295 296 298 299 301 304 306 307 307 308 309 310 310 310 310 310 309 309 310 311 312 313 313 312 311 311 311 311 310 311 311 310 310 311 311
274 274 275 275 276 276 276 275 274 272 270 268 268 267 265 263 263 263 263 264 265 265 267 268 268 269 270 271 271 272 273 276 279 281 284 285 288 290 290 290 291 292 293 294 295 295 295 294 294 294 295 296 298 300 302 305 307 307 307 307 309 310 310 310 311 311 310 310 311 311 311 311 310 309 309 310 311 310 310 310 310 310 310 310 310
273 274 274 275 275 275 275 274 273 272 270 267 266 267 265 263 263 263 263 264 265 266 267 268 268 269 270 271 270 271 272 275 277 279 281 283 286 288 291 291 291 291 292 293 294 296 296 296 295 295 295 296 297 299 301 305 307 307 306 307 308 309 310 310 310 311 310 310 310 309 308 308 308 308 309 310 311 311 311 310 310 311 310 310 309
273 273 274 274 275 275 274 273 272 271 270 268 267 267 265 263 263 263 264 265 265 266 267 268 268 269 270 270 270 270 271 273 274 275 277 280 283 285 288 290 291 292 292 293 293 295 297 297 297 297 296 296 298 299 301 304 306 306 306 306 307 308 308 308 308 309 309 309 308 307 308 309 308 308 309 310 310 311 311 311 311 311 310 309 309
273 273 273 274 274 274 274 273 271 271 270 268 268 269 269 267 266 264 265 266 266 266 267 267 268 270 270 270 269 270 271 272 273 274 276 279 281 283 285 288 289 291 292 293 293 294 296 297 298 297 296 297 298 300 302 304 305 305 305 306 306 306 306 307 308 308 308 307 307 307 309 309 308 308 308 309 309 309 310 310 310 310 309 309 308
272 273 273 273 274 273 273 272 271 271 270 268 268 268 269 271 271 268 266 267 267 267 267 267 268 269 269 269 269 270 271 273 274 276 278 281 282 284 285 288 290 291 292 293 293 294 295 296 297 298 297 297 299 301 302 304 305 305 305 305 306 307 307 307 308 307 307 306 307 307 308 309 309 308 309 309 309 308 308 308 308 308 308 308 307
272 272 272 273 273 273 272 272 271 271 270 269 268 268 268 270 273 273 270 268 268 267 268 268 269 269 269 269 269 269 270 271 273 276 279 282 284 285 287 288 290 292 293 293 294 295 295 295 297 298 298 298 299 301 302 304 305 305 305 306 306 307 307 307 307 307 306 306 306 306 306 308 309 309 309 309 308 307 306 306 306 306 306 305 305
271 271 272 272 272 272 272 272 271 271 270 269 269 269 267 267 270 272 273 272 272 270 269 269 268 268 268 269 269 269 269 270 272 274 278 281 285 286 288 289 291 292 293 294 294 296 296 296 296 298 298 299 300 301 303 304 305 305 306 306 306 306 306 306 306 306 306 306 306 305 305 306 306 307 308 307 306 306 305 305 304 303 303 303 303
271 271 272 272 272 272 272 271 271 271 270 269 269 269 268 268 268 270 271 272 272 272 271 270 269 267 267 269 270 270 270 271 271 272 275 279 282 284 286 290 292 293 294 293 293 295 296 296 296 298 299 299 300 301 303 304 305 305 306 306 306 306 306 305 305 305 306 305 305 305 305 304 304 305 305 306 305 305 304 304 303 302 302 302 302
271 271 271 271 271 271 271 271 271 270 270 269 269 269 269 269 270 270 269 269 269 269 268 269 268 267 266 268 270 270 271 271 271 271 273 276 279 282 286 289 290 291 291 291 292 293 295 296 297 298 299 299 300 301 303 304 305 305 305 305 305 305 305 305 305 305 305 305 305 305 304 304 304 304 304 305 305 304 303 302 302 303 303 303 302
271 271 271 271 271 271 271 271 271 270 269 269 269 269 269 269 269 269 269 269 268 268 267 267 268 268 268 268 269 271 271 270 270 271 272 274 277 281 283 282 282 283 284 286 288 290 292 294 296 297 299 300 300 301 303 304 305 305 306 306 305 304 305 306 306 305 305 305 305 305 304 304 304 304 304 304 305 306 305 303 303 303 304 303 302
270 270 271 271 270 271 271 271 271 270 270 269 269 269 269 269 269 269 269 268 268 269 268 268 269 270 269 269 270 270 270 270 271 273 274 275 277 278 277 276 276 278 279 281 284 286 289 291 293 295 297 299 300 301 302 303 305 305 305 305 305 304 305 305 305 305 305 305 305 304 304 304 304 304 304 303 304 305 305 304 303 303 303 303 302
270 270 270 270 270 270 270 271 271 270 270 270 269 269 269 269 269 269 269 268 268 269 269 269 269 268 267 267 269 270 270 272 274 276 275 275 275 274 274 274 275 275 276 277 280 282 285 287 290 292 295 297 298 300 301 302 303 304 305 305 305 305 305 305 305 304 304 304 304 304 304 304 304 304 304 304 304 303 303 303 302 302 302 301 301
269 269 269 269 269 270 270 270 270 270 270 270 269 269 269 269 269 269 268 268 268 268 268 269 269 267 265 265 268 270 271 272 272 271 271 271 271 271 272 274 274 274 275 276 277 279 282 284 287 289 292 294 296 298 299 300 301 302 303 304 304 304 304 304 304 304 304 304 304 304 303 303 304 303 303 303 303 303 303 302 301 301 301 301 301
269 269 269 269 269 269 269 269 269 270 269 269 269 269 268 268 268 268 268 268 268 268 267 267 268 267 266 265 267 269 270 270 270 269 269 269 270 270 271 272 273 274 274 274 275 276 278 280 283 286 288 290 293 295 297 298 299 300 301 302 303 303 303 303 304 304 304 304 303 303 303 303 303 303 303 303 303 303 303 302 301 301 301 301 301
269 269 269 269 269 269 269 269 269 269 269 268 268 268 268 268 268 268 268 268 267 267 267 267 267 267 267 266 267 269 269 269 269 270 270 269 268 268 269 270 271 272 272 273 273 274 275 277 280 282 284 287 289 291 293 295 297 298 299 299 300 301 302 302 303 303 303 303 303 303 303 303 303 303 303 303 303 303 302 302 301 301 301 301 301
268 268 268 268 268 268 268 268 268 268 268 268 268 267 267 267 267 267 267 267 267 267 267 267 267 267 267 267 268 269 269 269 269 269 270 270 270 269 269 269 269 270 270 271 272 272 273 275 277 279 281 283 286 288 290 292 294 295 297 297 298 299 300 300 301 301 302 302 302 302 302 302 302 303 303 303 302 302 301 301 301 301 301 300 300
268 268 268 268 268 268 268 268 268 268 268 268 267 267 267 267 267 267 267 266 266 266 267 267 267 267 267 267 267 268 268 269 269 269 269 270 270 270 270 270 270 270 270 271 271 272 273 274 275 277 278 280 282 284 286 288 290 292 294 295 296 297 298 298 299 299 300 300 301 301 301 301 302 302 302 301 301 301 301 300 300 300 300 300 300
268 268 267 267 268 267 267 267 267 267 267 267 267 267 267 267 266 266 266 266 266 266 266 266 266 266 267 267 267 267 267 267 268 268 268 269 269 270 271 271 271 271 271 272 272 272 273 274 275 276 277 278 279 281 283 284 286 289 291 292 294 295 296 297 297 298 298 299 299 299 300 300 300 300 300 300 300 300 300 300 300 300 299 299 299
267 267 267 267 267 267 267 267 267 267 267 267 267 267 267 266 266 266 266 266 266 266 265 266 266 266 266 266 266 266 266 266 267 267 267 268 268 269 270 271 271 271 272 272 272 273 273 274 275 276 277 277 278 280 281 282 284 286 287 289 291 293 294 295 296 297 297 298 298 299 299 299 299 299 299 299 299 299 299 300 300 300 299 299 299
267 267 267 267 267 267 267 267 267 267 267 267 267 266 266 266 266 266 266 266 266 265 265 265 265 266 266 266 266 266 266 266 266 266 267 267 267 268 269 270 271 271 271 272 272 272 273 273 274 275 276 276 277 278 280 281 282 284 285 287 288 290 291 293 294 295 296 297 297 298 298 298 298 298 298 298 298 298 298 298 298 298 299 299 299
267 267 267 267 267 267 267 267 266 266 266 266 266 266 266 266 266 266 265 265 265 265 265 265 265 265 265 265 265 266 266 266 266 266 266 266 267 267 268 269 270 271 271 271 272 272 272 273 273 274 274 275 276 277 278 279 281 282 283 284 285 287 288 290 292 293 295 296 296 297 297 297 297 297 297 297 297 297 297 297 297 297 297 297 297
267 267 267 267 267 267 267 267 266 266 266 266 266 266 266 266 266 266 265 265 265 265 265 265 265 265 265 265 265 265 265 266 266 266 266 266 266 267 267 268 270 270 271 271 271 271 272 272 272 273 274 274 275 275 276 277 279 280 281 282 282 284 285 288 290 291 292 293 294 295 296 296 296 297 297 297 297 297 297 297 297 296 296 296 296
267 267 267 267 267 267 267 266 266 266 266 266 266 266 266 266 266 266 265 265 265 265 265 265 265 265 265 265 265 265 265 265 265 266 266 266 266 266 266 267 268 269 270 270 270 270 271 271 271 272 273 273 273 274 274 275 276 277 279 280 280 282 283 285 286 288 289 291 292 293 293 294 295 295 295 295 295 295 295 295 295 295 295 295 295
266 267 267 266 266 266 266 266 266 266 266 266 266 266 266 266 266 266 265 265 265 265 265 264 264 264 264 264 264 265 265 265 265 265 265 265 265 265 266 266 267 268 269 269 269 269 270 270 270 270 271 272 273 273 273 273 274 275 276 278 279 280 282 283 284 285 286 287 289 290 290 291 292 292 292 293 293 293 293 293 293 293 294 294 294
266 266 266 266 266 266 266 266 266 266 266 266 266 266 266 266 265 265 265 265 265 265 265 264 264 264 264 264 264 264 264 264 265 265 265 265 265 265 265 265 266 267 268 268 269 269 269 269 269 268 269 270 271 272 272 272 273 273 274 276 277 279 279 280 281 282 283 284 285 286 287 288 289 290 290 290 290 291 291 291 291 291 291 291 291
Wind_Speed
38 40 42 43 45 46 48 49 50 50 49 47 46 47 47 47 46 46 45 45 44 40 37 37 35 33 32 30 29 28 29 33 38 39 37 31 25 23 23 24 26 26 25 27 27 27 29 31 34 36 38 39 37 34 33 55 64 64 70 65 61 61 59 62 59 51 50 56 63 66 66 66 63 60 59 56 56 57 58 56 55 56 54 53 55
39 41 43 44 46 48 50 51 51 51 50 48 47 46 47 47 47 47 47 46 45 40 37 36 35 33 31 30 29 29 32 38 39 38 39 38 30 23 23 24 24 25 25 26 26 26 27 29 31 33 36 39 38 34 30 49 64 62 67 66 62 61 60 60 59 55 52 52 58 64 67 67 66 63 58 54 55 59 61 58 58 60 58 55 56
41 42 44 45 47 49 51 52 51 51 49 48 48 47 47 47 47 47 47 47 45 42 38 35 34 33 33 32 32 31 33 38 37 35 38 41 36 28 23 22 21 24 25 26 26 25 26 27 28 30 33 37 38 34 29 43 62 63 65 67 65 63 60 60 60 59 58 56 56 63 68 66 65 63 57 51 54 61 62 60 61 61 59 58 59
42 44 45 47 49 50 52 52 51 50 48 48 48 47 47 47 47 47 48 48 46 43 40 36 34 34 34 34 33 31 33 37 39 37 36 39 40 34 27 22 19 21 24 26 25 24 25 26 26 27 28 34 37 33 30 39 58 62 63 65 63 62 59 58 62 62 62 60 59 64 67 64 63 62 57 51 56 62 61 59 61 60 59 61 62
43 45 46 48 50 51 51 51 51 50 48 49 49 49 49 48 48 47 46 48 48 45 40 35 34 34 35 35 32 33 38 41 41 39 35 36 39 37 31 24 20 20 22 25 26 23 23 25 25 24 25 31 37 33 30 39 55 58 60 61 59 60 59 57 60 63 64 63 62 63 65 64 63 60 57 55 61 64 59 58 62 62 62 63 62
44 45 47 49 50 51 51 51 51 50 49 50 50 50 50 50 49 48 46 48 49 45 40 36 34 36 38 38 36 38 43 42 40 38 35 36 38 37 33 28 22 21 21 24 25 23 23 24 23 23 24 29 35 31 28 38 55 57 58 60 58 59 60 59 59 61 64 66 66 64 64 65 64 60 57 57 64 68 62 59 63 64 64 64 62
45 46 48 49 50 51 51 51 51 52 51 52 51 51 51 51 51 48 46 47 45 42 41 39 38 39 40 40 38 40 43 41 38 38 36 35 36 37 35 30 25 22 21 23 25 23 23 25 24 24 24 28 33 29 27 36 53 59 59 60 60 60 61 60 61 61 63 65 66 65 65 65 63 62 60 59 64 69 66 64 67 67 65 66 65
45 47 48 49 50 51 51 52 53 53 53 52 52 52 52 52 51 49 45 43 41 38 38 39 39 39 39 40 40 40 42 41 39 37 35 34 34 35 35 32 28 26 23 23 25 23 23 25 26 25 25 28 31 27 25 34 50 58 59 61 61 62 62 60 61 62 62 63 64 66 68 65 63 62 61 61 63 66 67 68 70 70 68 67 66
45 47 48 49 50 51 52 53 54 55 54 53 52 52 53 52 51 49 45 40 37 34 34 34 36 37 38 39 40 39 39 40 37 34 32 32 32 32 33 32 30 28 26 25 26 25 24 26 27 27 26 28 30 26 25 35 49 54 57 62 63 63 63 61 61 62 62 62 62 64 65 64 63 63 63 64 64 66 69 70 68 69 70 66 63
45 47 49 50 51 52 53 54 55 55 54 53 52 52 53 53 51 48 44 40 36 33 32 33 33 35 36 36 37 36 36 37 35 31 28 27 28 29 30 31 31 30 27 28 30 29 27 28 30 29 27 27 29 27 24 33 51 56 56 62 66 65 64 62 61 63 63 62 62 62 63 63 66 69 69 69 67 66 70 72 69 68 68 64 61
46 47 49 50 51 52 53 54 55 56 54 52 52 51 52 52 50 46 42 39 36 32 32 33 32 32 33 34 34 35 35 35 33 30 27 25 25 26 27 29 31 31 29 29 33 34 33 33 34 31 28 26 27 28 25 28 49 61 57 60 67 68 68 66 64 64 64 63 63 64 66 67 70 72 72 70 68 66 68 73 71 68 68 67 63
46 48 48 49 51 52 54 54 55 56 54 51 51 51 51 50 47 44 41 38 35 31 30 31 31 30 31 32 34 35 36 35 33 30 27 26 25 25 26 28 29 31 32 31 34 38 39 40 39 35 30 26 24 27 26 26 45 64 62 59 64 66 69 69 67 67 67 65 65 66 68 71 72 73 72 70 70 68 67 71 72 70 70 69 65
47 48 48 49 50 52 53 54 55 56 55 52 50 49 48 48 46 43 40 38 35 32 30 29 29 30 31 32 34 36 36 36 34 30 25 25 26 26 27 29 30 32 35 35 36 39 41 43 42 38 32 26 23 24 25 25 39 62 66 63 64 65 66 68 69 69 69 68 67 68 69 71 72 74 75 73 72 70 67 68 71 72 71 69 67
47 48 48 49 50 51 52 53 55 56 55 53 50 49 47 46 45 41 39 37 35 33 31 29 29 29 31 33 34 36 37 36 34 30 23 22 24 25 26 28 31 33 36 38 39 40 42 44 44 40 33 27 22 22 23 24 35 57 66 63 64 66 66 67 68 69 68 67 68 69 68 68 69 72 76 75 73 74 74 72 71 72 71 68 66
48 48 48 49 49 50 51 53 54 56 56 54 51 49 47 45 44 40 36 36 35 34 33 31 30 30 30 32 34 36 36 34 33 29 23 21 22 23 25 26 29 32 34 38 41 42 43 45 45 42 35 28 23 21 21 22 32 53 64 63 63 66 67 68 69 69 68 68 70 69 67 65 64 67 73 75 73 74 76 75 72 71 69 65 62
48 48 49 49 49 50 51 53 55 56 56 54 51 49 47 45 43 39 37 37 37 36 34 32 32 32 30 32 34 35 34 32 30 27 21 20 21 24 25 27 29 31 32 35 39 42 44 46 47 43 38 31 25 22 20 22 32 50 62 64 63 65 66 67 67 68 67 68 70 67 63 62 62 63 69 74 74 74 74 71 67 67 66 62 58
48 49 49 49 49 50 51 53 55 55 55 53 51 49 47 45 43 40 39 40 41 40 37 33 31 32 31 31 33 34 34 29 26 25 20 19 21 23 25 27 28 30 32 33 36 40 43 46 47 45 41 34 27 24 20 22 33 49 59 62 63 64 65 66 65 66 67 67 67 65 61 60 60 61 66 72 76 77 74 70 68 68 66 61 58
47 48 49 49 49 49 50 53 54 54 53 51 49 48 47 45 43 39 38 40 41 42 39 35 31 30 29 30 31 33 34 28 23 23 21 19 20 23 25 27 28 29 30 31 33 36 40 44 46 46 43 36 29 26 22 21 33 50 58 61 63 64 65 66 66 66 66 66 66 64 61 59 59 60 65 71 75 78 78 76 74 72 68 65 64
47 48 49 49 48 49 50 51 52 51 50 48 47 46 46 44 41 37 36 38 40 39 37 35 33 30 29 28 28 30 32 28 23 22 21 21 22 24 25 27 29 29 30 30 31 34 35 39 44 45 44 37 30 28 25 22 33 52 60 61 64 66 66 68 68 67 66 65 64 63 62 61 61 62 65 69 73 77 79 78 78 75 69 66 65
47 47 47 47 47 48 49 49 49 48 47 46 45 43 43 41 39 37 36 37 37 36 34 33 33 32 30 30 28 27 29 28 23 21 21 21 22 24 26 28 29 31 31 30 30 33 34 38 42 44 42 37 30 29 28 24 32 52 62 63 66 69 68 68 68 68 67 65 63 62 63 64 64 64 66 69 71 74 75 75 76 76 71 67 66
46 46 46 46 46 47 47 47 47 45 44 43 42 41 39 38 37 37 36 35 35 34 32 31 31 32 31 31 28 25 25 26 24 21 20 21 22 25 29 30 29 30 32 32 31 33 35 38 41 42 40 35 29 29 31 27 31 50 64 67 69 70 67 67 66 66 67 66 63 62 62 63 64 64 66 69 70 71 71 70 70 71 71 70 70
45 45 45 45 45 46 46 45 44 44 42 40 39 40 38 37 36 36 34 33 33 32 31 29 30 30 30 30 27 24 24 27 27 24 21 20 21 24 29 30 28 28 32 34 34 34 36 38 39 38 36 32 28 29 32 30 32 48 64 68 67 66 66 67 66 65 65 66 64 63 62 62 62 63 64 67 69 70 70 70 69 68 70 73 73
42 43 43 43 44 44 44 43 42 41 40 38 37 39 38 36 35 34 32 32 32 31 30 30 31 32 32 31 28 26 26 27 27 26 24 23 23 22 25 27 27 27 31 34 35 35 34 35 35 34 32 30 28 29 33 32 33 46 61 64 64 66 66 65 65 64 63 64 63 63 63 62 63 64 65 67 68 67 68 69 70 69 71 73 73
40 41 41 42 43 43 42 42 41 39 38 37 37 38 38 36 34 33 31 31 31 31 32 33 35 36 35 34 32 29 27 25 24 22 22 25 27 26 25 26 26 28 31 32 33 33 32 31 32 31 30 29 28 28 32 34 34 44 57 62 63 65 65 63 64 63 61 60 61 63 64 64 65 65 66 67 66 64 64 65 65 67 70 71 69
39 40 41 41 41 42 42 41 39 37 36 36 37 37 38 37 35 33 31 31 31 32 35 37 38 36 35 36 37 34 29 26 23 20 18 20 23 24 26 26 26 26 30 32 31 30 29 29 30 30 28 29 29 28 29 33 33 40 55 63 62 62 62 62 63 63 61 61 64 66 67 66 65 66 65 65 65 63 63 63 63 65 66 65 63
37 38 39 39 39 40 41 40 39 37 36 36 37 36 36 36 35 34 33 31 30 33 37 37 36 34 35 37 38 37 33 30 27 24 22 20 19 19 20 22 21 21 25 29 29 29 29 28 28 29 29 29 28 26 27 30 31 39 54 62 61 61 61 61 63 64 64 65 67 68 67 66 66 66 65 64 63 61 61 62 62 63 63 62 59
36 37 38 38 37 39 40 40 39 37 37 37 37 37 35 34 34 34 33 31 32 34 36 35 33 34 37 37 35 36 37 34 30 28 27 25 22 20 20 19 18 18 20 23 25 28 29 29 29 30 30 29 27 26 27 28 31 43 56 60 60 63 64 63 65 66 66 67 68 67 66 65 65 65 65 65 63 61 60 61 62 62 63 61 59
34 35 36 36 36 37 38 39 38 37 37 37 37 38 36 34 34 33 31 30 33 34 35 35 33 33 36 36 35 36 38 35 32 31 31 29 27 25 23 22 20 20 21 22 23 24 28 30 31 31 32 32 30 28 29 30 35 47 58 59 60 63 64 64 66 66 65 65 64 62 61 62 64 65 65 66 65 64 64 63 63 63 63 61 59
33 34 34 35 36 36 37 37 37 37 37 38 38 38 35 32 32 31 27 26 28 30 32 33 31 30 33 34 33 35 36 34 33 32 33 34 33 31 29 27 25 24 24 24 23 22 24 29 33 33 33 33 31 29 30 33 38 49 57 58 59 61 62 63 65 65 64 63 60 60 61 63 64 65 65 66 67 67 67 65 63 62 61 61 61
32 33 33 34 35 36 36 36 36 36 38 38 40 41 39 34 32 31 28 24 22 24 28 28 25 26 31 32 30 28 29 30 31 32 34 37 38 37 35 32 29 26 25 24 23 22 22 27 33 35 35 34 32 31 32 34 39 48 54 56 58 59 60 63 65 65 64 62 61 62 64 64 64 64 65 66 66 66 65 64 63 62 62 63 62
32 32 33 34 35 35 34 35 35 36 37 38 39 43 44 41 38 34 30 25 22 23 25 22 19 23 29 31 30 26 23 24 27 30 33 36 38 39 37 33 28 25 23 22 24 25 25 28 33 37 37 37 35 34 34 35 40 48 53 55 58 59 61 64 65 64 63 62 62 63 64 64 65 65 66 66 65 64 64 63 63 63 63 63 63
31 31 32 32 33 33 32 33 34 35 37 38 39 41 44 46 44 41 37 32 26 26 27 24 21 25 29 29 30 29 25 22 24 25 26 29 33 35 34 30 24 21 20 21 25 29 29 30 35 38 39 39 38 36 36 37 41 48 54 57 60 62 64 65 65 64 63 62 61 62 63 65 66 67 67 66 64 63 63 64 64 64 64 63 63
29 30 31 31 31 31 31 32 32 34 36 38 39 40 41 45 47 46 44 40 33 30 30 30 30 32 32 28 27 28 26 24 24 23 22 23 25 26 26 23 19 18 19 21 25 30 32 33 35 37 38 39 38 38 38 39 41 47 54 59 61 63 64 64 63 63 62 61 61 61 62 63 64 65 66 66 64 63 64 65 65 64 63 62 62
27 28 29 30 30 30 30 30 31 33 34 35 37 38 39 40 43 45 48 49 45 40 39 39 40 41 39 32 27 26 26 26 27 26 24 20 16 15 16 15 15 17 18 17 19 25 29 32 35 37 38 38 38 38 39 41 43 46 53 58 61 62 61 59 59 60 61 61 60 60 61 61 62 63 64 64 64 63 63 64 65 65 64 63 62
25 26 27 28 28 28 29 29 29 31 32 33 35 37 37 38 40 43 46 49 51 50 49 47 48 49 46 39 32 29 29 30 30 29 27 23 16 9 9 6 4 6 10 11 12 16 21 26 31 34 35 37 38 40 40 42 43 46 51 55 56 57 57 58 59 60 61 61 60 60 60 60 61 62 63 64 64 63 63 64 66 67 66 64 61
24 25 25 26 27 27 27 27 28 29 30 31 33 34 36 38 40 42 44 46 48 49 50 50 50 50 50 47 40 34 33 34 33 32 32 30 22 14 12 15 16 12 7 5 5 9 15 20 24 28 31 34 37 40 42 43 44 46 49 52 52 52 54 59 62 62 61 61 61 60 60 60 61 61 61 62 64 65 66 66 66 67 66 63 61
23 24 25 25 25 25 25 26 26 27 28 29 31 33 35 37 39 41 43 45 46 47 49 50 51 52 54 53 49 44 41 38 33 29 31 33 30 28 30 30 28 24 20 16 11 6 5 9 15 20 25 29 33 36 40 43 44 46 47 49 50 51 53 57 60 61 61 61 61 60 60 61 62 62 62 62 63 65 66 66 65 65 65 63 61
22 23 24 24 24 24 25 25 26 26 27 28 30 32 34 35 37 39 41 43 44 46 47 49 51 53 55 55 52 50 48 43 36 33 35 38 38 38 38 35 33 32 30 26 21 17 11 6 6 10 16 21 26 30 33 37 41 44 46 48 49 51 53 55 56 58 59 60 59 59 59 60 61 62 63 63 64 64 65 64 64 64 63 61 60
20 21 22 23 23 24 24 25 25 26 27 28 30 31 33 35 37 39 40 41 42 44 46 48 51 52 52 52 52 52 53 51 48 47 46 45 44 43 41 38 36 36 35 33 30 26 21 15 10 6 8 13 18 24 28 31 34 38 42 46 48 49 51 52 54 55 57 58 59 59 59 60 61 61 62 63 64 64 63 62 62 62 61 62 63
18 19 20 21 22 23 23 24 25 26 27 28 29 31 33 35 36 37 38 39 41 43 44 46 48 49 50 50 51 52 54 54 53 52 50 48 48 47 45 43 41 40 39 38 37 34 31 26 20 14 9 7 10 16 21 26 29 32 36 41 46 48 49 51 53 55 57 58 59 59 59 60 61 61 61 62 63 64 63 62 61 61 61 62 63
17 18 19 20 21 22 22 23 24 25 25 27 28 29 31 32 34 35 36 37 39 40 41 42 43 44 45 45 46 48 50 52 52 51 50 50 50 49 48 47 45 44 43 42 41 40 37 33 29 24 19 14 9 8 12 17 23 27 30 33 38 43 46 49 52 54 55 56 57 58 59 60 60 60 62 63 63 62 61 61 60 59 58 59 59
15 16 17 19 19 21 22 22 23 23 23 24 26 27 28 30 31 33 34 35 37 37 38 39 39 40 41 42 43 44 46 48 50 50 50 50 49 49 48 48 47 46 45 44 43 43 41 39 35 32 28 23 18 12 9 10 14 20 24 27 30 34 38 42 46 50 53 54 56 57 58 59 59 60 62 62 60 58 57 57 57 57 57 56 56
14 15 16 17 18 20 21 21 22 22 23 24 25 25 26 28 29 30 32 33 34 35 36 37 37 38 39 40 41 43 45 47 48 49 49 49 49 48 48 47 46 46 45 44 44 44 43 41 40 37 34 32 28 23 18 14 11 13 17 21 25 28 31 35 39 43 47 50 52 54 55 57 58 58 58 58 57 56 55 54 54 54 54 55 55
12 13 15 16 17 18 19 20 20 21 22 23 24 24 25 27 28 29 30 31 32 33 34 35 36 37 38 39 41 43 44 45 46 47 48 48 48 47 46 46 45 45 45 44 45 44 43 43 42 40 37 35 32 29 26 22 17 14 13 15 19 22 26 29 33 37 41 45 48 49 50 52 53 53 53 53 54 54 53 53 53 53 53 53 54
10 11 13 14 15 16 17 18 19 20 21 22 23 24 25 26 27 28 29 30 31 31 32 33 34 35 37 38 40 41 42 43 44 45 45 46 46 46 45 44 45 45 45 45 45 45 44 44 43 41 40 38 35 33 30 27 24 20 17 14 13 15 18 23 28 32 36 39 43 45 47 47 48 48 48 49 50 50 50 51 52 52 52 52 52
8 10 11 12 13 14 15 16 17 18 19 21 22 23 24 25 26 27 27 28 29 30 30 32 33 34 35 36 37 38 39 40 41 42 43 44 44 44 43 42 43 43 44 44 44 45 45 45 44 44 42 41 38 36 33 30 28 25 22 19 16 12 10 13 19 26 30 32 35 39 41 42 43 44 44 45 45 46 46 47 47 48 48 49 50
7 8 10 11 12 13 14 15 16 17 18 19 20 22 23 23 24 25 26 26 27 28 29 30 31 32 33 34 34 35 37 37 38 39 40 41 41 42 42 41 41 42 42 43 44 44 45 45 44 44 43 42 41 39 36 33 31 28 25 23 20 16 11 8 9 15 21 25 28 31 34 36 37 38 39 39 40 40 41 42 42 42 43 43 44
6 7 8 9 10 11 12 13 15 16 17 18 19 20 21 22 23 24 24 25 26 27 28 29 29 30 31 32 32 33 34 34 35 36 37 38 39 40 40 40 40 40 41 42 43 44 45 45 45 44 43 43 43 43 40 37 34 31 28 26 24 19 13 9 7 8 11 14 18 23 27 30 32 33 33 34 35 35 36 36 36 36 36 37 37
5 6 7 8 9 10 12 13 15 16 17 18 18 19 19 20 21 22 23 24 25 26 26 27 28 29 29 30 31 31 32 33 34 34 35 36 37 38 38 38 38 39 40 41 42 43 44 45 45 44 43 43 43 44 44 42 40 36 32 28 24 20 17 13 11 9 7 7 10 13 16 20 23 25 26 27 28 29 30 30 30 31 31 32 33
5 6 7 8 9 10 11 13 14 15 16 17 17 18 18 19 20 21 22 22 23 24 25 25 26 27 28 29 30 30 31 32 32 32 33 34 35 35 36 36 37 37 38 39 41 42 43 44 45 46 45 43 43 42 43 43 42 40 37 32 26 22 20 18 16 13 9 7 7 9 11 13 15 17 18 19 20 20 21 22 23 24 25 27 28
5 6 6 7 9 10 11 12 13 14 14 15 16 17 17 18 19 20 21 22 23 23 24 24 25 26 26 27 27 28 29 30 30 30 31 32 32 33 34 34 35 35 36 37 38 40 42 43 45 47 46 45 44 42 42 41 40 39 38 36 32 29 25 22 19 17 14 10 8 8 9 10 12 13 14 14 14 15 16 16 17 18 20 21 22
Wind_Direction
325 324 323 323 322 322 322 321 321 320 319 319 319 320 320 319 317 315 312 310 307 300 292 289 290 286 282 283 281 278 278 276 271 266 265 264 260 256 249 251 263 266 273 277 273 273 269 267 269 261 258 257 258 274 244 200 190 189 187 187 187 187 185 183 180 178 180 186 187 188 189 187 186 187 185 185 190 192 191 188 186 186 184 187 189
327 326 325 324 324 323 323 323 322 321 320 320 320 321 320 318 316 315 312 310 309 303 293 287 287 285 281 279 278 278 277 276 276 274 269 265 261 260 252 248 259 263 267 274 270 269 267 266 269 263 261 262 259 270 253 203 191 190 189 190 192 191 190 186 182 176 175 183 186 185 186 188 188 188 186 186 190 191 189 186 187 186 183 185 188
328 327 326 325 325 325 324 323 323 322 322 321 320 321 320 318 315 313 312 310 306 302 296 288 283 281 280 278 276 278 281 281 281 278 272 267 261 261 257 248 255 259 260 268 268 265 264 262 268 265 264 268 263 264 255 208 191 189 189 189 191 191 190 190 186 179 175 180 185 184 184 188 189 187 187 191 190 188 186 186 187 187 183 185 188
330 329 328 328 327 326 325 324 324 325 325 324 323 321 320 319 315 312 310 309 306 302 298 290 282 279 278 278 276 277 281 282 280 276 273 270 263 260 259 251 253 255 254 263 266 263 261 257 263 266 265 273 269 262 253 213 193 189 188 187 188 188 188 191 191 186 179 177 182 184 184 187 188 187 188 190 187 185 185 185 187 187 186 186 186
331 331 330 329 328 327 326 326 327 328 329 328 325 323 322 320 317 312 309 308 307 305 298 290 282 278 278 278 276 277 282 283 282 280 276 270 262 258 258 254 254 251 248 258 263 261 261 257 259 262 263 272 269 262 251 217 195 190 189 186 187 187 187 190 191 190 186 180 179 183 184 184 186 187 187 185 184 183 183 185 188 188 187 187 186
333 333 332 330 329 329 329 329 330 331 331 330 327 324 323 320 316 313 309 307 308 306 299 290 283 280 282 282 278 279 286 287 284 281 277 270 262 256 256 255 256 254 247 253 260 260 260 259 260 258 256 267 267 260 251 219 197 192 191 187 186 187 187 188 188 188 188 184 179 179 181 183 185 186 186 186 186 183 182 186 189 189 188 188 188
335 334 332 331 330 331 332 333 333 333 333 332 329 324 321 319 317 315 310 307 309 307 301 294 290 286 285 284 282 283 288 290 286 282 277 270 261 254 254 254 254 254 252 253 258 260 260 258 261 258 252 261 265 260 252 222 198 192 193 188 186 187 187 187 186 185 184 182 180 180 182 184 185 184 186 189 189 185 182 186 190 191 191 191 192
336 335 333 333 333 334 335 335 335 335 335 333 329 324 322 320 319 318 314 310 311 311 305 299 296 293 288 286 285 285 287 288 286 282 277 271 262 253 253 253 252 252 254 256 258 260 260 258 261 260 253 257 261 259 254 228 202 192 192 189 186 186 187 186 185 184 183 181 180 181 182 183 184 184 185 189 190 186 184 186 190 191 193 194 196
336 335 335 335 336 336 336 336 336 337 337 335 331 328 326 324 321 319 318 316 313 312 310 306 303 300 296 293 291 289 288 288 287 284 278 272 263 255 252 251 250 252 254 257 259 260 261 261 262 262 257 256 257 256 252 231 210 195 189 188 187 185 186 186 183 182 182 181 180 179 180 182 183 184 185 188 192 190 185 187 191 192 194 197 197
337 336 336 337 338 338 337 337 336 337 337 336 333 330 328 325 323 321 320 319 316 314 312 310 307 304 302 301 298 293 291 290 290 286 279 272 265 259 254 250 247 250 253 255 258 260 262 263 264 263 259 257 255 253 251 232 215 203 191 188 189 186 184 184 183 182 182 181 180 180 180 182 184 185 186 188 193 193 186 187 192 192 194 197 195
337 337 338 338 338 338 337 336 336 337 338 337 334 333 330 327 325 323 321 319 316 312 310 309 309 307 304 303 301 297 295 294 291 285 275 265 260 259 257 253 249 249 249 252 256 259 262 263 266 266 260 257 253 249 252 235 215 206 197 191 191 190 187 185 183 183 183 184 184 184 184 186 187 188 188 188 192 195 190 188 192 193 192 194 194
337 337 338 338 338 338 337 336 336 336 338 338 336 334 332 329 327 326 322 319 314 309 307 307 307 307 304 304 304 302 302 301 297 288 272 256 252 254 255 254 253 250 247 247 251 256 260 262 265 266 261 256 252 246 250 239 211 204 202 197 194 195 195 192 189 186 186 187 188 189 190 190 189 189 190 190 191 195 194 190 192 195 194 194 195
337 337 338 339 338 338 337 335 335 335 337 339 337 335 334 331 330 328 324 320 313 306 305 303 303 304 304 306 307 306 306 305 303 297 276 252 245 250 253 252 252 251 248 246 248 252 257 261 263 265 262 255 250 243 246 241 211 201 202 201 198 198 200 200 200 198 195 194 193 193 194 193 191 190 192 193 192 193 194 192 191 194 196 196 197
337 337 338 339 338 337 335 334 334 335 337 338 338 337 336 334 331 329 325 320 313 307 305 301 300 302 304 307 307 306 306 304 303 300 281 254 243 245 250 253 252 252 249 247 248 249 253 258 260 263 262 254 247 241 241 239 214 200 199 199 198 199 201 201 203 204 202 201 200 198 197 197 197 195 193 194 195 194 194 195 193 193 195 197 198
336 337 338 338 337 335 334 334 334 335 336 338 338 338 337 336 333 331 327 322 316 311 306 301 298 298 300 304 305 304 306 304 302 297 278 255 249 248 252 256 257 258 255 251 250 248 250 255 258 260 262 252 241 240 239 238 218 201 197 198 198 198 200 201 202 204 205 206 207 205 203 203 204 201 197 196 199 200 199 199 196 193 194 195 196
337 338 338 337 336 335 335 334 335 335 337 338 339 338 338 337 334 332 328 325 321 315 308 302 299 296 297 302 304 304 306 306 302 294 271 251 252 254 255 258 258 261 261 257 253 249 248 252 254 257 260 253 240 238 238 236 222 203 195 197 198 196 199 202 204 206 207 207 209 210 210 208 206 205 203 200 200 201 199 197 196 194 192 193 194
338 338 337 336 336 336 336 335 335 336 338 339 339 339 339 337 335 333 330 325 322 318 313 306 300 297 298 305 307 306 308 308 303 292 270 249 251 254 255 257 258 261 262 260 256 250 246 249 251 253 257 253 240 236 236 233 224 207 195 195 197 196 198 201 204 207 209 209 211 212 212 211 208 207 207 203 200 198 195 193 193 194 192 190 193
338 337 336 336 336 337 336 336 337 337 338 340 340 340 339 337 335 333 327 320 317 317 316 313 307 303 306 311 311 308 306 305 301 289 269 253 254 255 254 256 257 260 264 262 257 250 246 247 248 250 254 251 240 235 236 234 224 210 198 194 196 197 199 200 201 204 207 210 211 210 209 211 210 208 206 203 200 199 198 196 196 195 192 191 194
338 337 336 336 336 337 337 337 338 338 339 341 342 341 338 335 332 328 322 317 316 317 319 318 314 313 316 319 318 313 308 304 298 285 270 258 256 254 252 253 256 261 265 265 258 251 247 248 248 248 250 249 242 234 234 236 225 212 202 196 196 198 199 200 200 200 200 202 204 203 203 206 207 206 204 202 201 202 202 200 198 196 194 193 194
338 337 336 336 337 337 338 339 339 340 342 344 345 342 338 334 331 327 323 321 321 321 321 321 319 319 324 327 323 318 315 312 305 291 275 262 255 251 250 252 258 264 267 268 261 251 247 247 247 246 246 246 242 235 232 234 225 212 204 200 199 200 200 199 200 200 199 198 199 198 199 200 201 202 202 201 202 205 205 202 200 200 199 197 197
339 337 336 337 338 338 340 341 341 343 346 347 345 342 339 336 333 330 326 324 324 325 326 326 324 323 326 327 324 320 320 322 319 308 288 269 256 250 249 250 255 259 263 266 262 251 247 247 245 243 243 244 241 235 231 233 225 212 206 204 204 203 200 198 199 200 199 199 199 198 198 197 197 199 201 201 202 205 206 205 205 205 204 203 202
339 337 337 338 339 340 342 344 345 346 349 349 346 345 343 339 335 331 328 328 328 330 332 333 331 328 328 329 328 327 328 329 327 321 308 290 273 262 257 256 255 255 257 261 260 251 246 245 242 241 243 245 243 237 232 233 226 213 207 206 204 202 200 199 199 199 198 198 198 197 196 197 198 200 202 203 204 205 207 209 210 210 210 210 210
339 338 339 340 341 342 344 348 350 351 351 350 349 348 345 340 336 333 332 332 333 334 336 337 336 333 331 332 333 330 328 327 324 320 315 307 298 287 278 273 267 260 258 259 258 252 248 245 243 243 246 247 244 239 234 233 228 216 208 203 201 202 201 198 196 196 195 194 194 194 196 198 201 202 202 204 205 206 208 209 211 210 209 209 212
340 340 341 342 343 345 348 352 354 354 354 353 352 349 345 341 338 336 336 336 337 338 340 341 339 335 331 329 327 324 323 324 323 317 312 309 305 300 294 286 276 265 259 257 256 253 250 248 246 245 247 246 245 242 236 233 230 219 209 202 200 200 199 195 193 193 192 189 189 193 196 199 202 203 203 203 204 205 206 207 209 209 207 207 210
342 342 344 345 346 347 351 356 358 357 356 356 355 350 344 341 339 339 339 339 340 342 343 341 337 332 327 324 323 322 322 323 322 320 316 311 306 300 295 289 279 264 253 251 255 255 252 252 250 247 247 245 246 248 241 234 231 221 210 203 200 199 197 194 192 192 191 190 191 194 197 200 203 203 203 202 201 201 202 204 206 208 208 209 210
345 345 346 348 350 351 354 359 1 360 358 359 358 353 345 341 340 339 339 339 342 345 344 339 332 327 326 327 326 323 320 320 320 319 317 311 301 293 291 292 286 269 252 249 254 256 256 256 253 248 247 245 245 246 239 233 230 219 209 204 201 199 197 194 192 192 193 194 195 197 199 201 202 201 200 199 199 200 200 202 204 206 207 208 208
348 348 348 351 353 355 358 1 3 2 2 2 1 358 352 348 344 341 341 341 344 345 341 334 330 330 330 329 326 321 318 317 318 316 313 309 301 291 287 289 290 283 269 260 258 256 254 253 251 248 248 247 247 243 237 235 229 216 207 203 200 199 199 198 198 198 197 197 198 198 198 198 198 197 197 198 199 199 200 201 202 204 205 206 207
352 351 352 354 357 359 2 3 4 5 5 4 2 0 357 353 349 345 345 345 343 341 338 334 333 335 334 330 326 322 317 315 317 318 315 310 304 295 287 283 282 280 277 276 272 262 253 251 251 251 250 250 249 245 241 241 229 212 204 201 199 199 200 200 201 201 200 199 198 196 194 195 196 197 198 199 200 200 201 202 203 204 205 207 208
355 355 355 357 0 2 5 6 7 8 7 6 5 4 2 358 353 350 352 353 346 340 339 338 338 339 338 335 332 327 321 318 321 321 313 305 299 294 288 284 281 277 274 277 281 271 256 250 250 248 247 248 246 241 241 238 222 206 201 199 198 197 197 196 197 199 199 197 195 193 194 197 197 198 199 200 200 202 203 204 205 206 208 208 209
358 359 359 1 3 5 7 9 10 11 11 9 7 8 11 15 13 5 360 0 359 353 347 343 343 345 344 342 340 333 322 317 316 312 303 296 292 290 287 284 282 278 273 273 276 270 256 249 246 243 241 242 238 234 234 230 213 201 198 197 196 194 194 196 198 199 197 195 195 196 197 198 198 198 199 200 200 201 203 205 206 207 208 208 208
359 1 2 5 7 8 9 10 12 14 14 13 10 8 11 18 25 24 17 11 11 11 3 356 356 357 351 348 347 339 322 314 311 305 298 293 290 288 287 284 280 276 270 267 267 261 251 247 244 240 238 237 233 229 230 225 210 199 196 196 196 197 197 198 199 198 196 195 197 197 198 199 199 200 200 201 200 201 202 203 205 207 208 209 208
1 3 5 8 10 10 10 12 15 16 15 16 16 13 11 13 18 25 29 28 25 23 18 15 15 9 0 357 357 353 346 340 330 317 307 299 292 289 290 287 281 274 266 263 260 253 245 243 242 240 237 235 229 225 225 223 212 202 198 197 198 200 201 201 199 198 197 197 197 198 198 199 201 202 202 201 200 200 201 201 202 204 206 207 208
2 4 7 10 13 12 12 14 17 19 18 18 19 18 16 15 14 17 23 29 35 36 30 27 26 17 8 6 7 4 3 1 354 344 332 316 302 297 295 290 280 271 263 259 256 251 244 239 238 238 237 234 227 222 222 221 214 205 201 200 201 201 202 201 199 198 198 198 198 199 199 199 199 200 201 200 199 200 201 201 202 202 203 205 207
5 6 9 12 14 14 14 15 19 22 22 21 22 21 21 20 19 18 18 21 26 31 33 33 33 25 15 13 16 15 15 16 14 8 359 345 330 313 296 279 262 253 247 242 245 246 242 238 237 236 236 233 226 221 220 219 214 207 203 203 203 202 201 200 199 199 200 200 200 200 200 199 198 198 198 198 199 201 202 202 201 201 203 206 207
8 9 11 15 17 17 17 18 20 23 24 24 25 25 24 24 24 24 23 20 20 22 23 26 30 28 22 20 24 25 24 26 26 24 20 15 6 334 296 283 258 233 224 215 217 224 226 230 234 235 235 232 227 221 218 217 215 210 205 203 203 202 201 202 202 202 202 201 200 201 200 199 199 199 199 199 200 201 203 203 203 204 205 207 208
9 11 13 17 20 20 20 20 22 25 26 26 26 27 27 27 28 28 28 27 25 22 20 21 26 30 28 27 31 34 33 33 34 36 38 37 35 34 42 51 56 60 78 114 160 195 207 215 221 225 227 228 227 225 220 217 217 215 211 207 204 201 201 203 204 204 203 203 203 202 202 201 201 201 201 201 203 205 206 206 206 206 207 208 209
11 12 15 19 22 23 23 23 24 26 27 27 28 28 28 30 31 30 30 30 28 27 25 24 27 30 28 27 30 34 36 37 38 41 45 47 49 52 56 57 55 56 59 65 75 98 164 199 207 210 213 215 218 221 220 219 218 218 215 212 209 206 205 205 205 204 204 204 204 203 203 203 204 203 203 203 204 205 207 207 207 208 209 210 209
11 13 16 20 22 23 24 24 25 27 28 28 29 30 29 31 32 32 32 32 31 31 30 29 30 30 26 22 24 31 35 38 40 40 42 46 49 50 52 53 54 54 54 56 61 67 73 99 163 192 201 203 205 209 212 215 216 216 215 213 211 211 211 209 207 206 205 205 204 204 204 204 204 204 205 205 205 205 206 206 207 208 208 208 208
11 14 16 19 21 23 24 24 25 27 28 29 30 30 30 31 33 33 33 32 32 32 32 32 33 33 28 21 22 29 35 38 39 39 40 44 47 49 49 51 52 52 51 52 55 59 61 66 82 122 172 189 196 201 204 207 210 212 214 213 212 211 210 208 208 208 207 206 205 205 204 205 205 205 205 206 206 206 205 205 207 207 206 207 209
12 14 16 19 21 22 23 25 26 27 29 30 31 31 31 31 33 33 33 34 33 33 33 33 34 36 33 28 26 30 35 37 37 37 39 42 44 46 48 49 49 50 50 50 51 52 53 56 63 73 93 134 176 194 201 204 205 207 210 213 213 211 210 210 210 210 209 208 207 206 205 205 205 205 206 207 208 208 207 206 207 207 207 208 210
13 13 15 18 20 21 23 26 27 29 30 31 32 33 33 33 33 33 33 34 35 34 34 34 35 36 37 35 33 33 36 38 38 38 40 41 43 44 46 47 47 48 48 48 48 49 50 53 57 62 68 78 104 152 182 197 203 203 204 208 211 212 212 211 211 211 210 208 207 207 207 206 206 206 207 208 208 209 208 208 208 209 209 210 211
12 13 16 17 18 19 23 26 27 29 30 32 33 35 34 35 35 34 33 34 35 34 35 35 35 35 37 38 37 36 37 39 39 39 40 41 43 44 46 47 47 48 48 49 49 49 49 51 54 58 60 64 71 88 119 158 184 194 197 200 204 208 209 210 210 211 210 208 207 207 207 207 207 208 209 209 208 208 207 207 208 209 209 210 211
10 13 15 16 16 19 22 25 26 27 28 30 33 35 36 37 37 36 35 35 34 33 34 34 34 34 35 37 37 38 39 39 40 39 39 40 41 43 45 47 48 49 50 51 51 51 51 52 54 56 57 59 61 67 76 93 124 159 178 187 193 199 203 205 207 208 208 207 206 207 207 207 207 208 208 208 207 207 207 207 207 208 209 209 211
9 13 15 15 16 19 22 24 26 26 27 28 30 31 34 36 37 37 36 35 34 34 33 33 33 33 33 34 36 38 39 39 40 39 39 40 40 41 43 46 48 49 51 52 52 53 54 54 55 56 57 58 60 62 65 71 84 107 136 162 178 187 194 198 201 204 206 207 206 205 205 206 207 206 206 206 206 205 206 207 208 209 210 210 211
7 13 15 15 16 17 19 22 25 26 26 27 27 28 31 33 35 35 36 35 34 34 33 33 33 33 33 33 34 37 38 40 40 40 40 40 39 39 41 44 46 48 49 51 52 53 54 55 55 56 56 57 57 59 61 63 67 75 88 109 138 162 180 190 196 200 204 206 206 205 205 205 206 205 205 206 206 206 206 208 210 211 211 212 213
4 9 14 15 15 16 17 19 22 23 24 24 24 26 27 28 31 33 34 34 34 33 32 33 33 33 33 34 34 35 37 39 40 40 41 40 40 39 39 42 45 48 49 50 51 52 53 54 55 55 55 55 55 56 58 60 62 64 67 73 82 99 130 167 188 197 201 204 207 208 207 206 206 206 207 207 208 208 208 209 210 211 213 214 215
0 7 11 13 12 13 15 16 16 18 19 19 19 21 22 23 26 28 30 31 33 33 32 32 32 33 33 34 35 36 37 38 39 41 42 42 41 40 39 40 43 46 48 49 51 52 52 53 54 55 55 55 55 54 54 55 57 60 61 61 60 61 70 100 152 179 190 196 201 206 208 208 208 208 208 209 209 210 210 210 211 212 213 214 215
353 1 7 10 9 8 8 10 10 11 12 13 14 15 16 18 20 23 24 27 29 31 31 31 31 32 33 33 34 36 37 38 39 41 42 43 43 42 41 40 41 44 47 49 50 51 52 52 52 53 54 55 55 54 52 51 52 55 57 56 53 51 54 67 96 127 154 175 187 195 201 204 205 206 207 209 210 210 212 213 215 216 217 218 219
342 352 359 3 3 2 2 2 2 3 5 7 9 10 12 13 15 17 20 23 25 27 29 30 30 31 31 32 33 34 35 37 39 41 42 44 44 44 43 42 42 44 46 49 50 51 52 52 51 51 52 53 54 54 53 51 50 50 51 52 52 53 57 65 74 85 106 144 165 176 187 193 195 197 200 203 205 208 210 211 214 216 219 220 222
336 345 351 354 356 358 359 357 356 357 358 1 4 6 9 10 11 13 16 18 21 23 25 27 28 30 30 29 30 32 33 35 37 38 41 44 46 45 44 44 44 45 47 50 51 52 53 53 52 51 50 51 52 53 53 52 50 48 47 49 51 54 58 63 68 71 81 110 140 156 169 177 182 185 186 189 193 199 203 206 209 212 214 216 217
333 341 348 351 351 353 353 352 352 353 354 357 1 4 7 9 10 11 12 14 16 19 21 22 25 28 29 29 29 30 32 34 35 37 39 42 45 47 46 44 44 44 46 48 51 53 53 54 53 52 50 49 50 51 51 52 51 50 49 49 50 52 54 58 61 64 68 80 100 122 142 155 162 167 170 173 178 185 190 196 201 204 207 209 209